STARLINK-11334, 61250

Orbit data source: Space-Track

STARLINK-11334, 61250 is a payload satellite owned by SpaceX/Seattle (US) in LEO that was launched on Wed, 25 Sep 2024 UTC via an FALCON 9 launch vehicle from the Air Force Western Test Range (AFWTR). Payload-class satellites include a variety of spacecraft equipped with specific instruments for various scientific and technological missions. These include communications satellites like Starlink; space stations such as the ISS; scientific satellites like the Hubble; Earth observation satellites from companies like Planet Labs, Umbra, and HawkEye 360; GPS; miniature CubeSats for education and research; and military/defense satellites.

Loading next visibility...
Identifier
61250, 2024-175H
Orbit
LEO
Last TLE update
1 day ago
Origin
Manufacturer
SpaceX/Seattle
Mission
Operational Commercial Communications
Bus & Motor
STARLINK V2M, Unknown motor
Mass
730 kg wet, ~700 kg dry
Launch date (UTC)
2024-09-25 (7 months ago)
Launch vehicle
FALCON 9
Launch site
Air Force Western Test Range (AFWTR)
Object type
Payload
Rocket body
Debris
Shape & HBR
Box + 2 Pan, 29 m
Radar Cross Section
36.964 m², Large (>1 m²)

Expand to show TLE details & history

TLE from 1 day ago
0 STARLINK-11334
1 61250U 24175H   25128.28126707 -.00001012  00000-0 -34885-5 0  9993
2 61250  53.1578 121.4751 0001653  59.2631 300.8549 15.69707282 35405
Epoch: 2025-05-08T06:45Z
Definitive object data (Epoch: 2025-05-08T06:45:01.474Z)
Latitude
-0.00009°
Longitude
153.86488°
Altitude
360.078 km
Speed
7.695 km/s
True Right ascension
08h 05m 54s
True Declination
0° 00' 00"
Sunlit
Object was in daylight at TLE epoch
Visualization TLE readout
Latitude
-39.48804°
Longitude
111.01441°
Altitude
373.156 km
Speed
7.685 km/s
Apparent Right ascension
04h 13m 04s
Apparent Declination
-40° 36' 28"
Sunlit
Object is in daylight
Visualization observer readout
Local Sidereal Time
15:07:32
Azimuth
261.54° W
Elevation
-77.498°
Doppler factor
1
Orbital elements
Apogee altitude
361.109 km
Perigee altitude
358.882 km
Semi-major axis
6,738.133 km
Eccentricity
0.0001653
Inclination
53.1578°
RAAN
121.4751°
Arg. of periapsis
59.2631°
True anomaly
300.83864°
Mean anomaly
300.8549°
Eccentric anomaly
300.84677°
Mean motion
3.92404 °/min
BSTAR
-0.0000034885
Orbital period
91.74 mins
Loading maneuver chart data...
Loading SW <> Apogee altitude chart data...
Loading historical data...
Loading historical data...
Loading historical data...
Loading historical data...
Loading historical data...
Loading historical data...
Loading historical data...

STARLINK-11334 Visibility forecast

Observer location: undefined°, undefined°

Span
Click to sort rows by Start time (UTC) header in descending order
Start Az.
Max El. time (UTC)
Max El. Az.
Max El.
End time (UTC)
End Az.
4 mins2025-05-09 09:14:37.378Z296.973° NW2025-05-09 09:16:37.378Z210.288° SW39.411°2025-05-09 09:18:37.378Z147.628° SSE
4 mins2025-05-10 01:43:37.378Z219.819° SW2025-05-10 01:45:37.378Z98.104° ESE42.705°2025-05-10 01:47:37.378Z55.106° ENE
|